Tracking 35331 objects as of 15-Sep-2026
HD Live streaming from Space Station
objects crossing your sky now

SL-8 R/B

Track SL-8 R/B now!
10-day predictions


NORAD ID: 10918
Int'l Code: 1978-053B
Launch date: May 23, 1978
Source: Commonwealth of Independent States (former USSR) (CIS)
Launch site: PLESETSK MISSILE AND SPACE COMPLEX (PKMTR)

Note: This is a ROCKET BODY
Your satellite tracking list
Your tracking list is empty




NASA's NSSDC Master Catalog

Two Line Element Set (TLE):
1 10918U 78053B   26258.65830141  .00000092  00000-0  77526-4 0  9995
2 10918  82.9175 325.9718 0028656 273.7506 250.3397 13.77579891427521
Source of the keplerian elements: AFSPC